STARLINK-33804, 63511

Orbit data source: Space-Track

STARLINK-33804, 63511 is a payload satellite owned by SpaceX/Seattle (US) in LEO that was launched on Mon, 07 Apr 2025 UTC via an FALCON 9 launch vehicle from the Air Force Western Test Range (AFWTR). Payload-class satellites include a variety of spacecraft equipped with specific instruments for various scientific and technological missions. These include communications satellites like Starlink; space stations such as the ISS; scientific satellites like the Hubble; Earth observation satellites from companies like Planet Labs, Umbra, and HawkEye 360; GPS; miniature CubeSats for education and research; and military/defense satellites.

Loading next visibility...
Identifier
63511, 2025-071U
Orbit
LEO
Last TLE update
1 day ago
Origin
Manufacturer
SpaceX/Seattle
Mission
Operational spacecraft
Bus & Motor
STARLINK V2MO, Unknown motor
Mass
575 kg wet, ~530 kg dry
Launch date (UTC)
2025-04-07 (3 weeks ago)
Launch vehicle
FALCON 9
Launch site
Air Force Western Test Range (AFWTR)
Object type
Payload
Rocket body
Debris
Shape & HBR
Unknown
Radar Cross Section
Large (>1 m²)

Expand to show TLE details & history

TLE from 1 day ago
0 STARLINK-33804
1 63511U 25071U   25119.21052710  .00000739  00000-0  93515-5 0  9994
2 63511  53.1590 166.1846 0001657  84.4429 275.6780 15.74173397  4177
Epoch: 2025-04-29T05:03Z
Definitive object data (Epoch: 2025-04-29T05:03:09.541Z)
Latitude
-0°
Longitude
-127.01862°
Altitude
347.791 km
Speed
7.702 km/s
True Right ascension
11h 04m 44s
True Declination
0° 00' 00"
Sunlit
Object was in full shadow at TLE epoch
Visualization TLE readout
Latitude
-37.18824°
Longitude
81.21305°
Altitude
359.839 km
Speed
7.693 km/s
Apparent Right ascension
03h 35m 31s
Apparent Declination
-46° 40' 36"
Sunlit
Object is in daylight
Visualization observer readout
Local Sidereal Time
18:32:21
Azimuth
116.87° SE
Elevation
-57.567°
Doppler factor
1
Orbital elements
Apogee altitude
348.36 km
Perigee altitude
346.131 km
Semi-major axis
6,725.383 km
Eccentricity
0.0001657
Inclination
53.159°
RAAN
166.1846°
Arg. of periapsis
84.4429°
True anomaly
275.6591°
Mean anomaly
275.678°
Eccentric anomaly
275.66855°
Mean motion
3.93521 °/min
BSTAR
0.0000093515
Orbital period
91.48 mins
Loading maneuver chart data...
Loading SW <> Apogee altitude chart data...
Loading historical data...
Loading historical data...
Loading historical data...
Loading historical data...
Loading historical data...
Loading historical data...
Loading historical data...

STARLINK-33804 Visibility forecast

Observer location: undefined°, undefined°

Span
Click to sort rows by Start time (UTC) header in descending order
Start Az.
Max El. time (UTC)
Max El. Az.
Max El.
End time (UTC)
End Az.
5 mins2025-04-30 12:00:15.324Z323.516° NNW2025-04-30 12:02:15.324Z5.215° NNE31.696°2025-04-30 12:05:15.324Z108.309° ESE
4 mins2025-05-01 06:02:15.324Z274.287° WNW2025-05-01 06:04:15.324Z345.622° N25.961°2025-05-01 06:06:15.324Z30.488° NE
|